User: anonymous   Login
Location: Newark
(33.6439°N, 114.9881°W)
Time: 18:15:26
(UTC+00:00)
Language:

Transit 2A Rocket - Orbit

View from above orbital plane
View from above orbital plane
View from above satellite
View from above satellite

Ground track
Ground track

The orbit data is extracted from the following two-line orbital elements,

1    47U 60007C   19201.86738146 -.00000045 +00000-0 +15127-4 0  9990
2    47 066.6668 324.2404 0229166 188.5213 171.1974 14.42042451086724
Epoch (UTC): 20 July 2019 20:49:01
Eccentricity: 0.0229166
inclination: 66.6668°
perigee height: 588 km
apogee height: 915 km
right ascension of ascending node: 324.2404°
argument of perigee: 188.5213°
revolutions per day: 14.42042451
mean anomaly at epoch: 171.1974°
orbit number at epoch: 8672

The dashed part of the orbit path shows where the satellite is in the earth's shadow,  

DLR